Regional Weather Roundup
Issued by NWS Charleston, WV

Home | Current Version | Previous Version | Graphics & Text | Print | Product List | Glossary On
Versions: 1 2 3 4 5 6 7 8 9 10 11 12 13 14 15 16 17 18 19 20 21 22 23 24 25 26 27 28
000
ASUS41 KRLX 171310
RWRRLX
West Virginia Regional Weather Roundup
National Weather Service Charleston WV
900 AM EDT THU APR 17 2014

Note: "fair" indicates few or no clouds below 12,000 feet with no
significant weather and/or obstructions to visibility.

WVZ003-171400-
Northern Panhandle of West Virginia

CITY           SKY/WX    TMP DP  RH WIND       PRES   REMARKS
WHEELING       MOSUNNY   41  19  41 SE10      30.43R
$$

WVZ009-171400-
Northwest West Virginia

CITY           SKY/WX    TMP DP  RH WIND       PRES   REMARKS
PARKERSBURG    MOSUNNY   41  28  60 SE3       30.46R
$$

WVZ006-171400-
Western West Virginia

CITY           SKY/WX    TMP DP  RH WIND       PRES   REMARKS
HUNTINGTON     PTSUNNY   45  26  47 E3        30.41R
$$

WVZ015-171400-
West Central West Virginia

CITY           SKY/WX    TMP DP  RH WIND       PRES   REMARKS
CHARLESTON     PTSUNNY   47  20  34 S5        30.43R
$$

WVZ031-171400-
North Central West Virginia

CITY           SKY/WX    TMP DP  RH WIND       PRES   REMARKS
CLARKSBURG     MOSUNNY   44  17  33 SE8       30.45R
MORGANTOWN     MOSUNNY   45  17  32 SE8       30.46R
$$

WVZ035-042-045-171400-
South Central West Virginia

CITY           SKY/WX    TMP DP  RH WIND       PRES   REMARKS
BECKLEY        SUNNY     39  17  41 SE9G20    30.45R
BLUEFIELD      SUNNY     40  17  39 SE9       30.45R
LEWISBURG      SUNNY     35  19  52 CALM      30.50S
$$

WVZ047-171400-
Northern Mountains of West Virginia

CITY           SKY/WX    TMP DP  RH WIND       PRES   REMARKS
ELKINS         SUNNY     41  17  38 VRB3      30.47R
$$

WVZ052-171400-
Eastern Panhandle of West Virginia

CITY           SKY/WX    TMP DP  RH WIND       PRES   REMARKS
MARTINSBURG    MOSUNNY   39  23  52 E5        30.63R
PETERSBURG     SUNNY     37  32  81 CALM      30.59R
$$



USA.gov is the U.S. government's official web portal to all federal, state and local government web resources and services.